Flag for Colombia Weather past 2 weeks in Villavicencio, Colombia

Now
59 °F

Passing clouds.


Feels Like: 58 °F
Forecast: 68 / 88 °F
Wind: 7 mph from East

Location: Bogota / Eldorado

Current Time: Mar 27, 2015 at 9:35:27 PM

Latest Report: Mar 27, 2015 at 9:00 PM


Visibility: N/A

Pressure: 30.40 "Hg

Humidity: 68%

Dew point: 48 °F

Location of VillavicencioLocation

Historic Weather in Villavicencio — Graph

°F

Villavicencio temperature yesterday

Maximum temperature yesterday: 70 °F (at 2:00 PM)
Minimum temperature yesterday: 50 °F (at 5:00 AM)
Average temperature yesterday: 58 °F

Past Weeks' High & Low Weather Summary

 TemperatureHumidityPressure
High73 °F (Mar 14, 8:00 PM)100% (Mar 18, 5:00 AM)30.44 "Hg (Mar 18, 5:00 AM)
Low41 °F (Mar 22, 5:00 AM)36% (Mar 15, 12:00 PM)30.16 "Hg (Mar 13, 4:00 PM)
Average58 °F78%30.32 "Hg
* Reported Mar 12 8:00 PM — Mar 27 8:00 PM, Villavicencio, Weather by CustomWeather, © 2015

Note: Actual official high and low records may vary slightly from our data, if they occured in-between our weather recording intervals... More about our weather records

Advertising

Villavicencio weather history for previous 24 hours

 ConditionsComfort  
Time TempWeatherWind HumidityBarometerVisibility
8:00 PM
Fri, Mar 27
61 °FPassing clouds.5 mph59%30.36 "HgN/A
7:00 PM61 °FPassing clouds.8 mph59%30.33 "HgN/A
6:00 PM64 °FScattered clouds.7 mph52%30.29 "HgN/A
5:00 PM66 °FScattered clouds.8 mph49%30.27 "HgN/A
4:00 PM68 °FScattered clouds.9 mph46%30.27 "HgN/A
3:00 PM66 °FScattered clouds.7 mph46%30.30 "HgN/A
2:00 PM64 °FPartly sunny.10 mph49%30.33 "HgN/A
1:00 PM63 °FPartly sunny.12 mph56%30.35 "HgN/A
12:00 PM64 °FPartly sunny.8 mph52%30.37 "HgN/A
11:00 AM63 °FPartly sunny.10 mph56%30.40 "HgN/A
10:00 AM63 °FPartly sunny.3 mph52%30.41 "HgN/A
9:00 AM61 °FPartly sunny.2 mph59%30.41 "HgN/A
8:00 AM57 °FPartly sunny.5 mph77%30.40 "Hg5 mi
7:45 AM55 °FScattered clouds.2 mph82%30.39 "Hg5 mi
7:00 AM52 °FScattered clouds.5 mph94%30.37 "Hg5 mi
6:00 AM48 °FFog.6 mph94%30.34 "Hg4 mi
5:00 AM48 °FFog.3 mph94%30.33 "Hg2 mi
4:00 AM50 °FFog.2 mph94%30.33 "Hg3 mi
3:00 AM48 °FFog.3 mph94%30.33 "Hg3 mi
2:00 AM50 °FFog.2 mph94%30.34 "Hg5 mi
1:00 AM48 °FFog.6 mph94%30.35 "Hg5 mi
12:00 AM52 °FPassing clouds.5 mph88%30.37 "HgN/A
11:00 PM
Thu, Mar 26
52 °FFog.7 mph94%30.38 "Hg4 mi
10:00 PM52 °FFog.2 mph94%30.37 "Hg2 mi
9:00 PM55 °FScattered showers. Passing clouds.2 mph94%30.35 "Hg4 mi
Weather by CustomWeather, © 2015

See weather overviewHow to use our weather pages